Bezbozhnyy, Ukraine

8:17 PM EET on January 21, 2017 (GMT +0200)
Kharkiv

Weather History for UKHH - January, 2017

Change the Weather History Date:

Thursday, January 12, 2017

  Actual Average Record
Temperature  
Mean Temperature 28 °F -  
Max Temperature 33 °F - - ()
Min Temperature 23 °F - - ()
Degree Days  
Heating Degree Days 36    
Moisture  
Dew Point 29 °F    
Average Humidity 94    
Maximum Humidity 100    
Minimum Humidity 81    
Precipitation  
Precipitation 0.20 in 0.05 in - ()
Sea Level Pressure  
Sea Level Pressure 29.83 in    
Wind  
Wind Speed 12 mph ()    
Max Wind Speed 20 mph    
Max Gust Speed -    
Visibility 3.2 miles    
Events Rain , Snow    
T = Trace of Precipitation, MM = Missing Value Source: Averaged Metar Reports

Daily Weather History Graph

Daily Weather History Graph

Search for Another Location

Airport or City:

Trip Planner

Search our weather history database for the weather conditions in past years. The results will help you decide how hot, cold, wet, or windy it might be!

Date:

Astronomy

Jan. 12, 2017 Rise Set
Actual Time 7:29 AM EET 3:57 PM EET
Civil Twilight 6:52 AM EET 4:34 PM EET
Nautical Twilight 6:11 AM EET 5:15 PM EET
Astronomical Twilight 5:32 AM EET 5:54 PM EET
Moon 4:16 PM EET (1/12) 6:58 AM EET (1/12)
Length of Visible Light 9h 42m
Length of Day
8h 28m
Full, 100% of the Moon is Illuminated
Jan 12
Full
Jan 12
Full
Jan 20
Last Quarter
Jan 28
New
Feb 4
First Quarter

Hourly Weather History & Observations

Time (EET) Temp. Windchill Dew Point Humidity Pressure Visibility Wind Dir Wind Speed Gust Speed Precip Events Conditions
12:00 AM 24.8 °F 13.1 °F 24.8 °F 100% 30.06 in 3.1 mi SE 13.4 mph - N/A Snow Light Snow
12:14 AM 24.8 °F 13.1 °F 24.8 °F 100% 30.06 in 1.5 mi SE 13.4 mph - N/A Snow Light Snow
12:30 AM 24.8 °F 13.1 °F 24.8 °F 100% 30.04 in 0.9 mi SE 13.4 mph - N/A Snow Snow
1:00 AM 26.6 °F 15.3 °F 24.8 °F 93% 30.04 in 3.1 mi SE 13.4 mph - N/A Snow Light Snow
1:13 AM 26.6 °F 15.3 °F 24.8 °F 93% 30.04 in 3.1 mi SE 13.4 mph - N/A Snow Light Snow
1:30 AM 26.6 °F 16.4 °F 24.8 °F 93% 30.04 in 2.8 mi SE 11.2 mph - N/A Snow Light Snow
2:00 AM 27 °F - 26 °F 94% 30.06 in 2 mi ESE 11.2 mph - - Snow Light Snow
2:00 AM 26.6 °F 16.4 °F 26.6 °F 100% 30.01 in 1.7 mi SE 11.2 mph - N/A   Overcast
2:30 AM 28.4 °F 18.7 °F 26.6 °F 93% 30.01 in 1.1 mi SE 11.2 mph - N/A   Overcast
3:00 AM 28.4 °F 18.7 °F 28.4 °F 100% 29.98 in 1.2 mi SE 11.2 mph - N/A   Overcast
3:30 AM 28.4 °F 18.7 °F 28.4 °F 100% 29.98 in - SE 11.2 mph - N/A   Overcast
3:48 AM 30.2 °F 20.9 °F 28.4 °F 93% 29.95 in - SE 11.2 mph - N/A   Overcast
4:00 AM 30.2 °F 19.9 °F 28.4 °F 93% 29.95 in 3.1 mi SE 13.4 mph - N/A   Overcast
4:30 AM 30.2 °F 19.9 °F 28.4 °F 93% 29.95 in 4.3 mi SE 13.4 mph - N/A   Overcast
5:00 AM 32 °F - 30 °F 89% 29.96 in 2 mi SE 17.9 mph - -   Mist
5:00 AM 32.0 °F 21.4 °F 30.2 °F 93% 29.92 in 4.3 mi SSE 15.7 mph - N/A   Overcast
5:26 AM 32.0 °F 21.4 °F 30.2 °F 93% 29.92 in 1.6 mi SSE 15.7 mph - N/A Snow Light Snow Showers
5:30 AM 32.0 °F 21.4 °F 30.2 °F 93% 29.92 in 1.4 mi SSE 15.7 mph - N/A Snow Light Snow Showers
6:00 AM 32.0 °F 22.2 °F 30.2 °F 93% 29.92 in 1.5 mi SSE 13.4 mph - N/A Snow Light Snow Showers
6:11 AM 32.0 °F 22.2 °F 30.2 °F 93% 29.89 in 1.4 mi SSE 13.4 mph - N/A Snow Light Snow Showers
6:30 AM 32.0 °F 22.2 °F 30.2 °F 93% 29.89 in 1.0 mi SSE 13.4 mph - N/A Snow Snow Showers
6:40 AM 32.0 °F 22.2 °F 30.2 °F 93% 29.89 in 0.9 mi SSE 13.4 mph - N/A Snow Snow Showers
7:00 AM 32.0 °F 22.2 °F 32.0 °F 100% 29.89 in 1.2 mi SSE 13.4 mph - N/A Snow Snow Showers
7:30 AM 32.0 °F 21.4 °F 32.0 °F 100% 29.86 in 1.6 mi SSE 15.7 mph - N/A Snow Light Snow
8:00 AM 32 °F - 31 °F 95% 29.88 in 2 mi SE 15.7 mph - - Snow Light Snow
8:00 AM 32.0 °F 22.2 °F 32.0 °F 100% 29.86 in 1.6 mi SSE 13.4 mph - N/A Snow Light Snow
8:30 AM 32.0 °F 22.2 °F 32.0 °F 100% 29.83 in 1.8 mi SSE 13.4 mph - N/A Snow Light Snow
9:00 AM 32.0 °F 22.2 °F 32.0 °F 100% 29.83 in 1.2 mi SSE 13.4 mph - N/A Rain , Snow Snow
9:30 AM 32.0 °F 22.2 °F 32.0 °F 100% 29.80 in 1.7 mi SSE 13.4 mph - N/A Rain , Snow Light Snow
10:00 AM 32.0 °F 22.2 °F 32.0 °F 100% 29.80 in 1.2 mi SSE 13.4 mph - N/A Rain , Snow Snow Showers
10:30 AM 32.0 °F 22.2 °F 32.0 °F 100% 29.77 in 0.7 mi SE 13.4 mph - N/A Rain , Snow Snow Showers
11:00 AM 33 °F - 32 °F 93% 29.78 in 3 mi SE 17.9 mph - - Snow Light Snow Showers
11:00 AM 33.8 °F 23.7 °F 32.0 °F 93% 29.74 in 1.8 mi SSE 15.7 mph - N/A Rain , Snow Light Snow Showers
11:15 AM 33.8 °F 23.0 °F 32.0 °F 93% 29.74 in 2.5 mi SSE 17.9 mph - N/A Rain , Snow Light Snow Showers
11:30 AM 33.8 °F 22.3 °F 33.8 °F 100% 29.71 in 5.0 mi SSE 20.1 mph - N/A Rain , Snow Light Snow Showers
12:00 PM 33.8 °F 22.3 °F 32.0 °F 93% 29.71 in 1.7 mi SSE 20.1 mph - N/A Rain , Snow Light Snow Showers
12:25 PM 33.8 °F 23.7 °F 32.0 °F 93% 29.68 in - SSE 15.7 mph - N/A Rain , Snow Light Snow Showers
12:30 PM 33.8 °F 23.7 °F 32.0 °F 93% 29.68 in 2.8 mi SSE 15.7 mph - N/A Rain , Snow Light Snow Showers
1:00 PM 33.8 °F 23.7 °F 32.0 °F 93% 29.68 in 3.1 mi SSE 15.7 mph - N/A Rain , Snow Light Snow
1:30 PM 33.8 °F 24.5 °F 32.0 °F 93% 29.68 in - South 13.4 mph - N/A Rain , Snow Light Snow
2:00 PM 33 °F - 33 °F 97% 29.72 in 3 mi South 11.2 mph - - Snow Light Snow
2:00 PM 33.8 °F 26.5 °F 32.0 °F 93% 29.68 in - SSW 8.9 mph - N/A Rain , Snow Light Snow
2:05 PM 33.8 °F 26.5 °F 32.0 °F 93% 29.68 in 1.4 mi SSW 8.9 mph - N/A Rain , Snow Light Snow
2:30 PM 32.0 °F 22.2 °F 30.2 °F 93% 29.71 in - West 13.4 mph - N/A Snow Light Snow
3:00 PM 30.2 °F 23.5 °F 30.2 °F 100% 29.71 in - West 6.7 mph - N/A Snow Light Snow Showers
3:30 PM 30.2 °F 23.5 °F 30.2 °F 100% 29.71 in 1.7 mi SW 6.7 mph - N/A Snow Light Snow Showers
4:00 PM 30.2 °F 25.5 °F 30.2 °F 100% 29.71 in 3.7 mi SSW 4.5 mph - N/A Snow Light Snow Showers
4:30 PM 30.2 °F 23.5 °F 30.2 °F 100% 29.71 in 6.2 mi South 6.7 mph - N/A   Mostly Cloudy
5:00 PM 31 °F - 29 °F 91% 29.77 in 6 mi South 8.9 mph - - Snow Light Snow Showers
5:00 PM 30.2 °F 22.1 °F 30.2 °F 100% 29.74 in 6.2 mi SSW 8.9 mph - N/A   Mostly Cloudy
5:30 PM 30.2 °F 20.9 °F 28.4 °F 93% 29.71 in 4.3 mi WSW 11.2 mph - N/A Snow Light Snow Showers
6:00 PM 28.4 °F 18.7 °F 28.4 °F 100% 29.74 in 6.2 mi WSW 11.2 mph - N/A   Mostly Cloudy
6:30 PM 28.4 °F 18.7 °F 26.6 °F 93% 29.74 in 6.2 mi West 11.2 mph - N/A   Mostly Cloudy
7:00 PM 28.4 °F 19.9 °F 24.8 °F 86% 29.74 in 6.2 mi West 8.9 mph - N/A   Mostly Cloudy
7:30 PM 28.4 °F 18.7 °F 24.8 °F 86% 29.74 in 6.2 mi WSW 11.2 mph - N/A   Mostly Cloudy
8:00 PM 27 °F - 25 °F 87% 29.78 in 6 mi WSW 8.9 mph - -   Partly Cloudy
8:00 PM 26.6 °F 17.7 °F 24.8 °F 93% 29.74 in 6.2 mi West 8.9 mph - N/A   Mostly Cloudy
8:30 PM 26.6 °F 16.4 °F 24.8 °F 93% 29.74 in 6.2 mi WSW 11.2 mph - N/A   Mostly Cloudy
9:00 PM 26.6 °F 16.4 °F 24.8 °F 93% 29.74 in 6.2 mi WSW 11.2 mph - N/A   Mostly Cloudy
9:30 PM 26.6 °F 19.2 °F 23.0 °F 86% 29.74 in 6.2 mi West 6.7 mph - N/A   Mostly Cloudy
10:30 PM 24.8 °F 17.1 °F 21.2 °F 86% 29.74 in 6.2 mi West 6.7 mph - N/A   Mostly Cloudy
11:00 PM 24 °F - 21 °F 81% 29.79 in 6 mi West 6.7 mph - -   Mostly Cloudy
11:00 PM 24.8 °F 15.5 °F 21.2 °F 86% 29.74 in - West 8.9 mph - N/A   Clear
11:30 PM 23.0 °F 14.9 °F 19.4 °F 86% 29.74 in - West 6.7 mph - N/A   Clear